Location: Unspecified
(44.0704°N, 88.6889°W)
Time: 10:46:50
(UTC+02:00)

Transit 2A - Pass Details

Date: 24 June 2019
Orbit: 594 x 965 km, 66.7° (Epoch: 16 July)

Event Time Altitude Azimuth Distance (km) Brightness Sun altitude
Rises 06:16:07 0° 166° (SSE) 3,606 - -18.7°
Reaches altitude 10° 06:19:15 10° 152° (SSE) 2,686 - -18.9°
Exits shadow 06:23:12 21° 113° (ESE) 2,023 7.8 -19.2°
Maximum altitude 06:23:49 21° 105° (ESE) 2,009 7.8 -19.2°
Drops below altitude 10° 06:28:22 10° 59° (ENE) 2,685 8.9 -19.5°
Sets 06:31:29 0° 44° (NE) 3,605 9.8 -19.7°
